Flag for Monaco Weather past 2 weeks in Monaco, Monaco

Now
66 °F

Partly sunny.


Feels Like: 66 °F
Forecast: 54 / 65 °F
Wind: 5 mph from Southeast

Location: Nice Airport


UV Index: 3 (Moderate)

Visibility: N/A


Pressure: 29.92 "Hg

Humidity: 73%

Dew point: 57 °F

Location of MonacoLocation

Historic Weather in Monaco

°F

Monaco temperature yesterday

Maximum temperature yesterday: 70 °F (at 10:30 AM)
Minimum temperature yesterday: 55 °F (at 12:30 AM)
Average temperature yesterday: 62 °F

Past Weeks' High & Low Weather Summary

 TemperatureHumidityPressure
High70 °F (Apr 23, 10:30 AM)88% (Apr 10, 10:00 PM)30.15 "Hg (Apr 10, 10:00 PM)
Low50 °F (Apr 17, 3:00 AM)39% (Apr 16, 5:00 PM)29.45 "Hg (Apr 19, 6:00 AM)
Average59 °F70%29.92 "Hg
* Reported Apr 9 4:00 PM — Apr 24 4:00 PM, Monaco, Weather by CustomWeather, © 2014

Note: Actual official high and low records may vary slightly from our data, if they occured in-between our weather recording intervals... More about our weather records

Advertising

Historic Weather Conditions — Data for Previous 24 hours

 ConditionsComfort  
Time TempWeatherWind HumidityBarometerVisibility
4:00 PM
Apr 24
66 °FScattered clouds.3 mph73%29.95 "HgN/A
3:30 PM66 °FScattered clouds.5 mph68%29.95 "HgN/A
3:00 PM66 °FScattered clouds.6 mph73%29.95 "HgN/A
2:30 PM66 °FScattered clouds.5 mph73%29.98 "HgN/A
2:00 PM66 °FScattered clouds.3 mph73%29.98 "HgN/A
1:30 PM66 °FPassing clouds.3 mph73%29.98 "HgN/A
1:00 PM66 °FPassing clouds.5 mph73%29.98 "HgN/A
12:30 PM64 °FPassing clouds.5 mph78%29.98 "HgN/A
12:00 PM64 °FPassing clouds.3 mph73%29.98 "HgN/A
11:30 AM64 °FPassing clouds.7 mph73%29.98 "HgN/A
11:00 AM64 °FSunny.8 mph73%29.98 "Hg10 mi
10:30 AM64 °FSunny.7 mph68%29.98 "Hg10 mi
10:00 AM64 °FPassing clouds.5 mph60%29.98 "HgN/A
9:30 AM66 °FSunny.8 mph46%29.98 "Hg10 mi
9:00 AM64 °FSunny.8 mph49%29.98 "Hg10 mi
8:30 AM63 °FSunny.8 mph52%29.98 "Hg10 mi
8:00 AM61 °FSunny.8 mph55%29.98 "Hg10 mi
7:30 AM61 °FClear.7 mph55%29.98 "Hg10 mi
7:00 AM59 °FClear.7 mph59%29.98 "Hg10 mi
6:30 AM59 °FClear.8 mph59%29.98 "Hg10 mi
6:00 AM59 °FClear.8 mph59%29.98 "Hg10 mi
5:30 AM59 °FPassing clouds.9 mph59%29.98 "HgN/A
5:00 AM59 °FPassing clouds.7 mph59%29.98 "HgN/A
4:30 AM59 °FClear.12 mph63%29.98 "Hg10 mi
4:00 AM61 °FPassing clouds.6 mph59%29.98 "HgN/A
3:30 AM61 °FClear.7 mph59%29.98 "Hg10 mi
3:00 AM61 °FClear.7 mph59%29.98 "Hg10 mi
2:30 AM63 °FClear.12 mph59%29.98 "Hg10 mi
2:00 AM63 °FClear.10 mph59%29.98 "Hg10 mi
1:30 AM63 °FClear.13 mph59%30.01 "Hg10 mi
1:00 AM63 °FClear.12 mph59%30.01 "Hg10 mi
12:30 AM59 °FClear.9 mph72%30.01 "Hg10 mi
12:00 AM59 °FClear.9 mph72%30.01 "Hg10 mi
11:30 PM
Apr 23
61 °FClear.5 mph68%30.01 "Hg10 mi
11:00 PM61 °FClear.6 mph72%30.01 "Hg10 mi
10:30 PM64 °FClear.5 mph60%30.01 "Hg10 mi
10:00 PM63 °FPassing clouds.3 mph64%30.01 "HgN/A
9:30 PM63 °FPartly cloudy.5 mph68%29.98 "HgN/A
9:00 PM63 °FBroken clouds.3 mph68%29.98 "HgN/A
8:30 PM63 °FBroken clouds.9 mph73%29.98 "HgN/A
8:00 PM68 °FBroken clouds.7 mph53%29.98 "HgN/A
7:30 PM66 °FBroken clouds.6 mph60%29.98 "HgN/A
7:00 PM68 °FBroken clouds.8 mph56%30.01 "HgN/A
6:30 PM66 °FBroken clouds.2 mph60%30.01 "HgN/A
6:00 PM64 °FBroken clouds.3 mph73%29.98 "HgN/A
5:30 PM64 °FScattered clouds.5 mph73%30.01 "HgN/A
5:00 PM64 °FScattered clouds.3 mph78%30.01 "HgN/A
Weather by CustomWeather, © 2014

See weather overview